Location: Peterborough
(44.3091°N, 78.3197°W)
Time: 06:06:31
(UTC-04:00)

Vanguard 1 Rocket - Pass Details

Date: 27 March 2023
Orbit: 655 x 4220 km, 34.3° (Epoch: 04 June)

Event Time Altitude Azimuth Distance (km) Brightness Sun altitude
Rises 20:05:57 0° 194° (SSW) 8,169 12.3 -6.5°
Reaches altitude 10° 20:13:29 10° 182° (S) 7,363 11.9 -7.8°
Maximum altitude 20:31:15 24° 139° (SE) 6,014 11.1 -10.9°
Enters shadow 20:43:34 14° 101° (ESE) 6,097 10.9 -13.0°
Drops below altitude 10° 20:46:12 10° 95° (E) 6,268 - -13.4°
Sets 20:51:37 0° 83° (E) 6,789 - -14.4°
